Year,Month,Day,Hour,Minute,Value (Times are PST for temperature in C)
2012,10,28,09,05,10.80
2012,10,28,09,06,10.90
2012,10,28,09,07,10.90
2012,10,28,09,08,11.00
2012,10,28,09,09,11.00
2012,10,28,09,10,11.00
2012,10,28,09,11,11.10
2012,10,28,09,12,11.10
2012,10,28,09,13,11.10
2012,10,28,09,14,11.10
2012,10,28,09,15,11.10
2012,10,28,09,16,11.20
2012,10,28,09,17,11.20
2012,10,28,09,18,11.20
2012,10,28,09,19,11.20
2012,10,28,09,20,11.10
2012,10,28,09,21,11.00
2012,10,28,09,22,11.00
2012,10,28,09,23,10.90
2012,10,28,09,24,10.90
2012,10,28,09,25,10.80
2012,10,28,09,26,10.80
2012,10,28,09,27,10.80
2012,10,28,09,28,10.80
2012,10,28,09,29,10.70
2012,10,28,09,30,10.70
2012,10,28,09,31,10.60
2012,10,28,09,32,10.60
2012,10,28,09,33,10.60
2012,10,28,09,34,10.60
2012,10,28,09,35,10.60
2012,10,28,09,36,10.60
2012,10,28,09,37,10.60
2012,10,28,09,38,10.60
2012,10,28,09,39,10.60
2012,10,28,09,40,10.60
2012,10,28,09,41,10.60
2012,10,28,09,42,10.60
2012,10,28,09,43,10.60
2012,10,28,09,44,10.60
2012,10,28,09,45,10.60
2012,10,28,09,46,10.60
2012,10,28,09,47,10.60
2012,10,28,09,48,10.60
2012,10,28,09,49,10.60
2012,10,28,09,50,10.60
2012,10,28,09,51,10.60
2012,10,28,09,52,10.60
2012,10,28,09,53,10.60
2012,10,28,09,54,10.60
2012,10,28,09,55,10.60
2012,10,28,09,56,10.60
2012,10,28,09,57,10.60
2012,10,28,09,58,10.60
2012,10,28,09,59,10.70
2012,10,28,10,00,10.70
2012,10,28,10,01,10.70
2012,10,28,10,02,10.70
2012,10,28,10,03,10.70
2012,10,28,10,04,10.70
2012,10,28,10,05,10.70
2012,10,28,10,06,10.80
2012,10,28,10,07,10.80
2012,10,28,10,08,10.80
2012,10,28,10,09,10.80
2012,10,28,10,10,10.80
2012,10,28,10,11,10.80
2012,10,28,10,12,10.90
2012,10,28,10,13,10.90
2012,10,28,10,14,10.90
2012,10,28,10,15,10.90
2012,10,28,10,16,10.90
2012,10,28,10,17,11.00
2012,10,28,10,18,11.00
2012,10,28,10,19,11.00
2012,10,28,10,20,11.00
2012,10,28,10,21,11.00
2012,10,28,10,22,11.00
2012,10,28,10,23,11.10
2012,10,28,10,24,11.10
2012,10,28,10,25,11.10
2012,10,28,10,26,11.10
2012,10,28,10,27,11.10
2012,10,28,10,28,11.10
2012,10,28,10,29,11.20
2012,10,28,10,30,11.20
2012,10,28,10,31,11.20
2012,10,28,10,32,11.30
2012,10,28,10,33,11.30
2012,10,28,10,34,11.30
2012,10,28,10,35,11.30
2012,10,28,10,36,11.40
2012,10,28,10,37,11.40
2012,10,28,10,38,11.40
2012,10,28,10,39,11.50
2012,10,28,10,40,11.50
2012,10,28,10,41,11.50
2012,10,28,10,42,11.60
2012,10,28,10,43,11.60
2012,10,28,10,44,11.60
2012,10,28,10,45,11.70
2012,10,28,10,46,11.70
2012,10,28,10,47,11.80
2012,10,28,10,48,11.80
2012,10,28,10,49,11.90
2012,10,28,10,50,11.90
2012,10,28,10,51,11.90
2012,10,28,10,52,12.00
2012,10,28,10,53,12.00
2012,10,28,10,54,12.10
2012,10,28,10,55,12.10
2012,10,28,10,56,12.20
2012,10,28,10,57,12.20
2012,10,28,10,58,12.20
2012,10,28,10,59,12.30
2012,10,28,11,00,12.30
2012,10,28,11,01,12.30
2012,10,28,11,02,12.30
2012,10,28,11,03,12.30
2012,10,28,11,04,12.30
2012,10,28,11,05,12.30
2012,10,28,11,06,12.30
2012,10,28,11,07,12.30
2012,10,28,11,08,12.20
2012,10,28,11,09,12.20
2012,10,28,11,10,12.20
2012,10,28,11,11,12.10
2012,10,28,11,12,12.10
2012,10,28,11,13,12.00
2012,10,28,11,14,12.00
2012,10,28,11,15,11.90
2012,10,28,11,16,11.90
2012,10,28,11,17,11.90
2012,10,28,11,18,12.00
2012,10,28,11,19,12.00
2012,10,28,11,20,11.90
2012,10,28,11,21,11.90
2012,10,28,11,22,11.80
2012,10,28,11,23,11.70
2012,10,28,11,24,11.50
2012,10,28,11,25,11.30
2012,10,28,11,26,11.20
2012,10,28,11,27,11.10
2012,10,28,11,28,11.00
2012,10,28,11,29,10.90
2012,10,28,11,30,10.90
2012,10,28,11,31,10.80
2012,10,28,11,32,10.80
2012,10,28,11,33,10.70
2012,10,28,11,34,10.70
2012,10,28,11,35,10.70
2012,10,28,11,36,10.60
2012,10,28,11,37,10.70
2012,10,28,11,38,10.70
2012,10,28,11,39,10.70
2012,10,28,11,40,10.70
2012,10,28,11,41,10.80
2012,10,28,11,42,10.80
2012,10,28,11,43,10.80
2012,10,28,11,44,10.80
2012,10,28,11,45,10.90
2012,10,28,11,46,10.90
2012,10,28,11,47,11.00
2012,10,28,11,48,11.00
2012,10,28,11,49,11.10
2012,10,28,11,50,11.10
2012,10,28,11,51,11.20
2012,10,28,11,52,11.20
2012,10,28,11,53,11.20
2012,10,28,11,54,11.20
2012,10,28,11,55,11.20
2012,10,28,11,56,11.20
2012,10,28,11,57,11.20
2012,10,28,11,58,11.20
2012,10,28,11,59,11.20
2012,10,28,12,00,11.20
2012,10,28,12,01,11.20
2012,10,28,12,02,11.20
2012,10,28,12,03,11.20
2012,10,28,12,04,11.20
2012,10,28,12,05,11.20
2012,10,28,12,06,11.30
2012,10,28,12,07,11.30
2012,10,28,12,08,11.30
2012,10,28,12,09,11.30
2012,10,28,12,10,11.30
2012,10,28,12,11,11.30
2012,10,28,12,12,11.30
2012,10,28,12,13,11.20
2012,10,28,12,14,11.20
2012,10,28,12,15,11.20
2012,10,28,12,16,11.10
2012,10,28,12,17,11.10
2012,10,28,12,18,11.10
2012,10,28,12,19,11.00
2012,10,28,12,20,11.00
2012,10,28,12,21,11.00
2012,10,28,12,22,10.90
2012,10,28,12,23,10.90
2012,10,28,12,24,10.90
2012,10,28,12,25,10.90
2012,10,28,12,26,10.90
2012,10,28,12,27,10.90
2012,10,28,12,28,10.90
2012,10,28,12,29,10.90
2012,10,28,12,30,10.90
2012,10,28,12,31,10.90
2012,10,28,12,32,10.90
2012,10,28,12,33,10.90
2012,10,28,12,34,10.90
2012,10,28,12,35,10.90
2012,10,28,12,36,10.90
2012,10,28,12,37,11.00
2012,10,28,12,38,11.00
2012,10,28,12,39,11.00
2012,10,28,12,40,11.00
2012,10,28,12,41,11.10
2012,10,28,12,42,11.10
2012,10,28,12,43,11.10
2012,10,28,12,44,11.10
2012,10,28,12,45,11.10
2012,10,28,12,46,11.20
2012,10,28,12,47,11.20
2012,10,28,12,48,11.20
2012,10,28,12,49,11.20
2012,10,28,12,50,11.20
2012,10,28,12,51,11.20
2012,10,28,12,52,11.20
2012,10,28,12,53,11.20
2012,10,28,12,54,11.20
2012,10,28,12,55,11.20
2012,10,28,12,56,11.20
2012,10,28,12,57,11.20
2012,10,28,12,58,11.20
2012,10,28,12,59,11.20
2012,10,28,13,00,11.20
2012,10,28,13,01,11.20
2012,10,28,13,02,11.20
2012,10,28,13,03,11.20
2012,10,28,13,04,11.20
2012,10,28,13,05,11.20
2012,10,28,13,06,11.20
2012,10,28,13,07,11.20
2012,10,28,13,08,11.20
2012,10,28,13,09,11.20
2012,10,28,13,10,11.20
2012,10,28,13,11,11.10
2012,10,28,13,12,11.10
2012,10,28,13,13,11.10
2012,10,28,13,14,11.10
2012,10,28,13,15,11.10
2012,10,28,13,16,11.10
2012,10,28,13,17,11.10
2012,10,28,13,18,11.10
2012,10,28,13,19,11.10
2012,10,28,13,20,11.10
2012,10,28,13,21,11.10
2012,10,28,13,22,11.10
2012,10,28,13,23,11.10
2012,10,28,13,24,11.10
2012,10,28,13,25,11.10
2012,10,28,13,26,11.10
2012,10,28,13,27,11.10
2012,10,28,13,28,11.10
2012,10,28,13,29,11.10
2012,10,28,13,30,11.10
2012,10,28,13,31,11.10
2012,10,28,13,32,11.00
2012,10,28,13,33,11.00
2012,10,28,13,34,10.90
2012,10,28,13,35,10.90
2012,10,28,13,36,10.90
2012,10,28,13,37,10.90
2012,10,28,13,38,10.90
2012,10,28,13,39,10.90
2012,10,28,13,40,10.90
2012,10,28,13,41,10.90
2012,10,28,13,42,10.90
2012,10,28,13,43,11.00
2012,10,28,13,44,11.00
2012,10,28,13,45,11.00
2012,10,28,13,46,11.00
2012,10,28,13,47,11.00
2012,10,28,13,48,11.10
2012,10,28,13,49,11.10
2012,10,28,13,50,11.10
2012,10,28,13,51,11.20
2012,10,28,13,52,11.20
2012,10,28,13,53,11.30
2012,10,28,13,54,11.30
2012,10,28,13,55,11.30
2012,10,28,13,56,11.40
2012,10,28,13,57,11.40
2012,10,28,13,58,11.50
2012,10,28,13,59,11.50
2012,10,28,14,00,11.60
2012,10,28,14,01,11.60
2012,10,28,14,02,11.60
2012,10,28,14,03,11.70
2012,10,28,14,04,11.70
2012,10,28,14,05,11.80
2012,10,28,14,06,11.90
2012,10,28,14,07,11.90
2012,10,28,14,08,12.00
2012,10,28,14,09,12.00
2012,10,28,14,10,12.00
2012,10,28,14,11,12.10
2012,10,28,14,12,12.10
2012,10,28,14,13,12.20
2012,10,28,14,14,12.20
2012,10,28,14,15,12.20
2012,10,28,14,16,12.30
2012,10,28,14,17,12.30
2012,10,28,14,18,12.30
2012,10,28,14,19,12.20
2012,10,28,14,20,12.20
2012,10,28,14,21,12.20
2012,10,28,14,22,12.20
2012,10,28,14,23,12.20
2012,10,28,14,24,12.20
2012,10,28,14,25,12.30
2012,10,28,14,26,12.30
2012,10,28,14,27,12.30
2012,10,28,14,28,12.30
2012,10,28,14,29,12.30
2012,10,28,14,30,12.30
2012,10,28,14,31,12.20
2012,10,28,14,32,12.20
2012,10,28,14,33,12.20
2012,10,28,14,34,12.20
2012,10,28,14,35,12.20
2012,10,28,14,36,12.20
2012,10,28,14,37,12.20
2012,10,28,14,38,12.20
2012,10,28,14,39,12.20
2012,10,28,14,40,12.20
2012,10,28,14,41,12.20
2012,10,28,14,42,12.20
2012,10,28,14,43,12.30
2012,10,28,14,44,12.30
2012,10,28,14,45,12.30
2012,10,28,14,46,12.30
2012,10,28,14,47,12.30
2012,10,28,14,48,12.30
2012,10,28,14,49,12.30
2012,10,28,14,50,12.30
2012,10,28,14,51,12.30
2012,10,28,14,52,12.30
2012,10,28,14,53,12.20
2012,10,28,14,54,12.20
2012,10,28,14,55,12.20
2012,10,28,14,56,12.20
2012,10,28,14,57,12.20
2012,10,28,14,58,12.30
2012,10,28,14,59,12.30
2012,10,28,15,00,12.20
2012,10,28,15,01,12.20
2012,10,28,15,02,12.20
2012,10,28,15,03,12.30
2012,10,28,15,04,12.30
2012,10,28,15,05,12.30
2012,10,28,15,06,12.40
2012,10,28,15,07,12.40
2012,10,28,15,08,12.40
2012,10,28,15,09,12.40
2012,10,28,15,10,12.40
2012,10,28,15,11,12.40
2012,10,28,15,12,12.40
2012,10,28,15,13,12.40
2012,10,28,15,14,12.40
2012,10,28,15,15,12.40
2012,10,28,15,16,12.40
2012,10,28,15,17,12.40
2012,10,28,15,18,12.40
2012,10,28,15,19,12.30
2012,10,28,15,20,12.30
2012,10,28,15,21,12.30
2012,10,28,15,22,12.30
2012,10,28,15,23,12.30
2012,10,28,15,24,12.30
2012,10,28,15,25,12.30
2012,10,28,15,26,12.30
2012,10,28,15,27,12.20
2012,10,28,15,28,12.20
2012,10,28,15,29,12.20
2012,10,28,15,30,12.20
2012,10,28,15,31,12.20
2012,10,28,15,32,12.10
2012,10,28,15,33,12.10
2012,10,28,15,34,12.10
2012,10,28,15,35,12.10
2012,10,28,15,36,12.10
2012,10,28,15,37,12.10
2012,10,28,15,38,12.10
2012,10,28,15,39,12.10
2012,10,28,15,40,12.10
2012,10,28,15,41,12.10
2012,10,28,15,42,12.10
2012,10,28,15,43,12.20
2012,10,28,15,44,12.20
2012,10,28,15,45,12.20
2012,10,28,15,46,12.20
2012,10,28,15,47,12.20
2012,10,28,15,48,12.20
2012,10,28,15,49,12.20
2012,10,28,15,50,12.20
2012,10,28,15,51,12.20
2012,10,28,15,52,12.20
2012,10,28,15,53,12.20
2012,10,28,15,54,12.20
2012,10,28,15,55,12.20
2012,10,28,15,56,12.20
2012,10,28,15,57,12.20
2012,10,28,15,58,12.20
2012,10,28,15,59,12.30
2012,10,28,16,00,12.30
2012,10,28,16,01,12.30
2012,10,28,16,02,12.30
2012,10,28,16,03,12.30
2012,10,28,16,04,12.30
2012,10,28,16,05,12.30
2012,10,28,16,06,12.30
2012,10,28,16,07,12.30
2012,10,28,16,08,12.30
2012,10,28,16,09,12.40
2012,10,28,16,10,12.40
2012,10,28,16,11,12.40
2012,10,28,16,12,12.40
2012,10,28,16,13,12.40
2012,10,28,16,14,12.40
2012,10,28,16,15,12.40
2012,10,28,16,16,12.40
2012,10,28,16,17,12.40
2012,10,28,16,18,12.40
2012,10,28,16,19,12.40
2012,10,28,16,20,12.40
2012,10,28,16,21,12.40
2012,10,28,16,22,12.40
2012,10,28,16,23,12.40
2012,10,28,16,24,12.40
2012,10,28,16,25,12.40
2012,10,28,16,26,12.40
2012,10,28,16,27,12.40
2012,10,28,16,28,12.40
2012,10,28,16,29,12.40
2012,10,28,16,30,12.50
2012,10,28,16,31,12.50
2012,10,28,16,32,12.50
2012,10,28,16,33,12.50
2012,10,28,16,34,12.50
2012,10,28,16,35,12.50
2012,10,28,16,36,12.50
2012,10,28,16,37,12.50
2012,10,28,16,38,12.60
2012,10,28,16,39,12.60
2012,10,28,16,40,12.60
2012,10,28,16,41,12.60
2012,10,28,16,42,12.60
2012,10,28,16,43,12.60
2012,10,28,16,44,12.60
2012,10,28,16,45,12.60
2012,10,28,16,46,12.60
2012,10,28,16,47,12.60
2012,10,28,16,48,12.50
2012,10,28,16,49,12.50
2012,10,28,16,50,12.40
2012,10,28,16,51,12.40
2012,10,28,16,52,12.40
2012,10,28,16,53,12.40
2012,10,28,16,54,12.40
2012,10,28,16,55,12.40
2012,10,28,16,56,12.40
2012,10,28,16,57,12.40
2012,10,28,16,58,12.40
2012,10,28,16,59,12.40
2012,10,28,17,00,12.40
2012,10,28,17,01,12.40
2012,10,28,17,02,12.40
2012,10,28,17,03,12.40
2012,10,28,17,04,12.40
2012,10,28,17,05,12.40
2012,10,28,17,06,12.40
2012,10,28,17,07,12.40
2012,10,28,17,08,12.40
2012,10,28,17,09,12.40
2012,10,28,17,10,12.40
2012,10,28,17,11,12.40
2012,10,28,17,12,12.40
2012,10,28,17,13,12.40
2012,10,28,17,14,12.40
2012,10,28,17,15,12.40
2012,10,28,17,16,12.40
2012,10,28,17,17,12.40
2012,10,28,17,18,12.40
2012,10,28,17,19,12.40
2012,10,28,17,20,12.40
2012,10,28,17,21,12.40
2012,10,28,17,22,12.30
2012,10,28,17,23,12.30
2012,10,28,17,24,12.30
2012,10,28,17,25,12.30
2012,10,28,17,26,12.30
2012,10,28,17,27,12.30
2012,10,28,17,28,12.30
2012,10,28,17,29,12.30
2012,10,28,17,30,12.30
2012,10,28,17,31,12.20
2012,10,28,17,32,12.20
2012,10,28,17,33,12.20
2012,10,28,17,34,12.20
2012,10,28,17,35,12.20
2012,10,28,17,36,12.20
2012,10,28,17,37,12.20
2012,10,28,17,38,12.20
2012,10,28,17,39,12.10
2012,10,28,17,40,12.10
2012,10,28,17,41,12.10
2012,10,28,17,42,12.10
2012,10,28,17,43,12.10
2012,10,28,17,44,12.10
2012,10,28,17,45,12.10
2012,10,28,17,46,12.00
2012,10,28,17,47,12.00
2012,10,28,17,48,12.00
2012,10,28,17,49,12.00
2012,10,28,17,50,12.00
2012,10,28,17,51,11.90
2012,10,28,17,52,11.90
2012,10,28,17,53,11.90
2012,10,28,17,54,11.90
2012,10,28,17,55,11.90
2012,10,28,17,56,11.80
2012,10,28,17,57,11.80
2012,10,28,17,58,11.80
2012,10,28,17,59,11.80
2012,10,28,18,00,11.80
2012,10,28,18,01,11.70
2012,10,28,18,02,11.70
2012,10,28,18,03,11.70
2012,10,28,18,04,11.70
2012,10,28,18,05,11.70
2012,10,28,18,06,11.70
2012,10,28,18,07,11.70
2012,10,28,18,08,11.70
2012,10,28,18,09,11.70
2012,10,28,18,10,11.60
2012,10,28,18,11,11.60
2012,10,28,18,12,11.60
2012,10,28,18,13,11.60
2012,10,28,18,14,11.60
2012,10,28,18,15,11.60
2012,10,28,18,16,11.60
2012,10,28,18,17,11.60
2012,10,28,18,18,11.50
2012,10,28,18,19,11.50
2012,10,28,18,20,11.50
2012,10,28,18,21,11.50
2012,10,28,18,22,11.50
2012,10,28,18,23,11.40
2012,10,28,18,24,11.40
2012,10,28,18,25,11.40
2012,10,28,18,26,11.40
2012,10,28,18,27,11.40
2012,10,28,18,28,11.40
2012,10,28,18,29,11.40
2012,10,28,18,30,11.30
2012,10,28,18,31,11.30
2012,10,28,18,32,11.30
2012,10,28,18,33,11.30
2012,10,28,18,34,11.30
2012,10,28,18,35,11.30
2012,10,28,18,36,11.30
2012,10,28,18,37,11.30
2012,10,28,18,38,11.30
2012,10,28,18,39,11.30
2012,10,28,18,40,11.20
2012,10,28,18,41,11.20
2012,10,28,18,42,11.20
2012,10,28,18,43,11.20
2012,10,28,18,44,11.20
2012,10,28,18,45,11.10
2012,10,28,18,46,11.10
2012,10,28,18,47,11.00
2012,10,28,18,48,11.00
2012,10,28,18,49,10.90
2012,10,28,18,50,10.90
2012,10,28,18,51,10.90
2012,10,28,18,52,10.90
2012,10,28,18,53,10.80
2012,10,28,18,54,10.80
2012,10,28,18,55,10.80
2012,10,28,18,56,10.80
2012,10,28,18,57,10.80
2012,10,28,18,58,10.70
2012,10,28,18,59,10.70
2012,10,28,19,00,10.70
2012,10,28,19,01,10.70
2012,10,28,19,02,10.70
2012,10,28,19,03,10.70
2012,10,28,19,04,10.70
2012,10,28,19,05,10.70
2012,10,28,19,06,10.70
2012,10,28,19,07,10.60
2012,10,28,19,08,10.60
2012,10,28,19,09,10.60
2012,10,28,19,10,10.60
2012,10,28,19,11,10.60
2012,10,28,19,12,10.60
2012,10,28,19,13,10.60
2012,10,28,19,14,10.60
2012,10,28,19,15,10.60
2012,10,28,19,16,10.60
2012,10,28,19,17,10.50
2012,10,28,19,18,10.50
2012,10,28,19,19,10.50
2012,10,28,19,20,10.50
2012,10,28,19,21,10.50
2012,10,28,19,22,10.50
2012,10,28,19,23,10.50
2012,10,28,19,24,10.50
2012,10,28,19,25,10.40
2012,10,28,19,26,10.40
2012,10,28,19,27,10.40
2012,10,28,19,28,10.40
2012,10,28,19,29,10.40
2012,10,28,19,30,10.40
2012,10,28,19,31,10.40
2012,10,28,19,32,10.40
2012,10,28,19,33,10.40
2012,10,28,19,34,10.40
2012,10,28,19,35,10.40
2012,10,28,19,36,10.40
2012,10,28,19,37,10.40
2012,10,28,19,38,10.40
2012,10,28,19,39,10.40
2012,10,28,19,40,10.40
2012,10,28,19,41,10.40
2012,10,28,19,42,10.40
2012,10,28,19,43,10.40
2012,10,28,19,44,10.40
2012,10,28,19,45,10.40
2012,10,28,19,46,10.40
2012,10,28,19,47,10.40
2012,10,28,19,48,10.40
2012,10,28,19,49,10.40
2012,10,28,19,50,10.40
2012,10,28,19,51,10.40
2012,10,28,19,52,10.40
2012,10,28,19,53,10.40
2012,10,28,19,54,10.30
2012,10,28,19,55,10.30
2012,10,28,19,56,10.30
2012,10,28,19,57,10.30
2012,10,28,19,58,10.30
2012,10,28,19,59,10.30
2012,10,28,20,00,10.30
2012,10,28,20,01,10.30
2012,10,28,20,02,10.30
2012,10,28,20,03,10.30
2012,10,28,20,04,10.30
2012,10,28,20,05,10.30
2012,10,28,20,06,10.30
2012,10,28,20,07,10.30
2012,10,28,20,08,10.30
2012,10,28,20,09,10.30
2012,10,28,20,10,10.30
2012,10,28,20,11,10.30
2012,10,28,20,12,10.30
2012,10,28,20,13,10.20
2012,10,28,20,14,10.20
2012,10,28,20,15,10.20
2012,10,28,20,16,10.20
2012,10,28,20,17,10.20
2012,10,28,20,18,10.20
2012,10,28,20,19,10.20
2012,10,28,20,20,10.20
2012,10,28,20,21,10.20
2012,10,28,20,22,10.20
2012,10,28,20,23,10.20
2012,10,28,20,24,10.20
2012,10,28,20,25,10.10
2012,10,28,20,26,10.10
2012,10,28,20,27,10.10
2012,10,28,20,28,10.10
2012,10,28,20,29,10.10
2012,10,28,20,30,10.10
2012,10,28,20,31,10.10
2012,10,28,20,32,10.10
2012,10,28,20,33,10.10
2012,10,28,20,34,10.10
2012,10,28,20,35,10.10
2012,10,28,20,36,10.10
2012,10,28,20,37,10.10
2012,10,28,20,38,10.10
2012,10,28,20,39,10.10
2012,10,28,20,40,10.10
2012,10,28,20,41,10.10
2012,10,28,20,42,10.10
2012,10,28,20,43,10.10
2012,10,28,20,44,10.10
2012,10,28,20,45,10.00
2012,10,28,20,46,10.00
2012,10,28,20,47,10.10
2012,10,28,20,48,10.10
2012,10,28,20,49,10.10
2012,10,28,20,50,10.10
2012,10,28,20,51,10.10
2012,10,28,20,52,10.10
2012,10,28,20,53,10.10
2012,10,28,20,54,10.10
2012,10,28,20,55,10.00
2012,10,28,20,56,10.00
2012,10,28,20,57,10.00
2012,10,28,20,58,10.00
2012,10,28,20,59,10.00
2012,10,28,21,00,10.00
2012,10,28,21,01,10.00
2012,10,28,21,02,10.00
2012,10,28,21,03,9.90
2012,10,28,21,04,9.90
2012,10,28,21,05,9.90
2012,10,28,21,06,9.90
2012,10,28,21,07,9.90
2012,10,28,21,08,9.90
2012,10,28,21,09,9.90
2012,10,28,21,10,9.90
2012,10,28,21,11,9.90
2012,10,28,21,12,9.90
2012,10,28,21,13,9.90
2012,10,28,21,14,9.90
2012,10,28,21,15,9.90
2012,10,28,21,16,9.90
2012,10,28,21,17,9.90
2012,10,28,21,18,9.90
2012,10,28,21,19,9.90
2012,10,28,21,20,9.90
2012,10,28,21,21,9.90
2012,10,28,21,22,9.90
2012,10,28,21,23,9.90
2012,10,28,21,24,9.90
2012,10,28,21,25,9.80
2012,10,28,21,26,9.80
2012,10,28,21,27,9.80
2012,10,28,21,28,9.80
2012,10,28,21,29,9.80
2012,10,28,21,30,9.80
2012,10,28,21,31,9.80
2012,10,28,21,32,9.80
2012,10,28,21,33,9.80
2012,10,28,21,34,9.80
2012,10,28,21,35,9.80
2012,10,28,21,36,9.80
2012,10,28,21,37,9.80
2012,10,28,21,38,9.80
2012,10,28,21,39,9.80
2012,10,28,21,40,9.80
2012,10,28,21,41,9.70
2012,10,28,21,42,9.70
2012,10,28,21,43,9.70
2012,10,28,21,44,9.70
2012,10,28,21,45,9.70
2012,10,28,21,46,9.70
2012,10,28,21,47,9.70
2012,10,28,21,48,9.70
2012,10,28,21,49,9.70
2012,10,28,21,50,9.70
2012,10,28,21,51,9.70
2012,10,28,21,52,9.70
2012,10,28,21,53,9.70
2012,10,28,21,54,9.70
2012,10,28,21,55,9.70
2012,10,28,21,56,9.70
2012,10,28,21,57,9.70
2012,10,28,21,58,9.70
2012,10,28,21,59,9.70
2012,10,28,22,00,9.70
2012,10,28,22,01,9.70
2012,10,28,22,02,9.70
2012,10,28,22,03,9.70
2012,10,28,22,04,9.70
2012,10,28,22,05,9.70
2012,10,28,22,06,9.70
2012,10,28,22,07,9.70
2012,10,28,22,08,9.70
2012,10,28,22,09,9.70
2012,10,28,22,10,9.80
2012,10,28,22,11,9.80
2012,10,28,22,12,9.80
2012,10,28,22,13,9.80
2012,10,28,22,14,9.80
2012,10,28,22,15,9.80
2012,10,28,22,16,9.80
2012,10,28,22,17,9.80
2012,10,28,22,18,9.80
2012,10,28,22,19,9.80
2012,10,28,22,20,9.80
2012,10,28,22,21,9.80
2012,10,28,22,22,9.80
2012,10,28,22,23,9.80
2012,10,28,22,24,9.80
2012,10,28,22,25,9.80
2012,10,28,22,26,9.80
2012,10,28,22,27,9.80
2012,10,28,22,28,9.80
2012,10,28,22,29,9.70
2012,10,28,22,30,9.70
2012,10,28,22,31,9.70
2012,10,28,22,32,9.70
2012,10,28,22,33,9.70
2012,10,28,22,34,9.70
2012,10,28,22,35,9.70
2012,10,28,22,36,9.70
2012,10,28,22,37,9.70
2012,10,28,22,38,9.70
2012,10,28,22,39,9.70
2012,10,28,22,40,9.70
2012,10,28,22,41,9.70
2012,10,28,22,42,9.70
2012,10,28,22,43,9.70
2012,10,28,22,44,9.70
2012,10,28,22,45,9.70
2012,10,28,22,46,9.60
2012,10,28,22,47,9.60
2012,10,28,22,48,9.60
2012,10,28,22,49,9.60
2012,10,28,22,50,9.60
2012,10,28,22,51,9.60
2012,10,28,22,52,9.60
2012,10,28,22,53,9.60
2012,10,28,22,54,9.60
2012,10,28,22,55,9.60
2012,10,28,22,56,9.60
2012,10,28,22,57,9.60
2012,10,28,22,58,9.60
2012,10,28,22,59,9.60
2012,10,28,23,00,9.60
2012,10,28,23,01,9.60
2012,10,28,23,02,9.60
2012,10,28,23,03,9.60
2012,10,28,23,04,9.60
2012,10,28,23,05,9.60
2012,10,28,23,06,9.60
2012,10,28,23,07,9.60
2012,10,28,23,08,9.60
2012,10,28,23,09,9.60
2012,10,28,23,10,9.60
2012,10,28,23,11,9.60
2012,10,28,23,12,9.60
2012,10,28,23,13,9.60
2012,10,28,23,14,9.60
2012,10,28,23,15,9.60
2012,10,28,23,16,9.60
2012,10,28,23,17,9.60
2012,10,28,23,18,9.60
2012,10,28,23,19,9.60
2012,10,28,23,20,9.50
2012,10,28,23,21,9.50
2012,10,28,23,22,9.50
2012,10,28,23,23,9.50
2012,10,28,23,24,9.50
2012,10,28,23,25,9.50
2012,10,28,23,26,9.50
2012,10,28,23,27,9.50
2012,10,28,23,28,9.50
2012,10,28,23,29,9.50
2012,10,28,23,30,9.50
2012,10,28,23,31,9.50
2012,10,28,23,32,9.50
2012,10,28,23,33,9.50
2012,10,28,23,34,9.50
2012,10,28,23,35,9.50
2012,10,28,23,36,9.50
2012,10,28,23,37,9.40
2012,10,28,23,38,9.40
2012,10,28,23,39,9.40
2012,10,28,23,40,9.40
2012,10,28,23,41,9.40
2012,10,28,23,42,9.40
2012,10,28,23,43,9.40
2012,10,28,23,44,9.40
2012,10,28,23,45,9.40
2012,10,28,23,46,9.40
2012,10,28,23,47,9.40
2012,10,28,23,48,9.40
2012,10,28,23,49,9.40
2012,10,28,23,50,9.40
2012,10,28,23,51,9.40
2012,10,28,23,52,9.40
2012,10,28,23,53,9.40
2012,10,28,23,54,9.40
2012,10,28,23,55,9.40
2012,10,28,23,56,9.40
2012,10,28,23,57,9.40
2012,10,28,23,58,9.40
2012,10,28,23,59,9.40
